Вернуться в каталог

IABS R/B

АктивенGEO
NORAD 27693·ROCKET BODY·🇺🇸 United States

Запущен Mar 11, 2003 с Cape Canaveral Space Force Station

Loading…

TLE

СвежийSource: Space-Track

Эпоха: Sep 13, 2026, 13:11 UTC

1 27693U 03008C   26256.54979655  .00000075  00000-0  00000-0 0  9991
2 27693  13.5354   9.6507 0028018 223.4016 136.3988  1.01117579 27519

Отслеживайте IABS R/B в реальном времени с AllMySat

Download on the App Store